| time (UTC) | temp F | wind direction | speed MPH | gust MPH | rain 1hr in | rain 24hr in | rain mn in | humidity % | barometer mb |
| 20260506233900 | 45 | 0 | 4.0 | 4.0 | 0.00 | 0.02 | 0.00 | 86 | 1000.1 |
| 20260506232400 | 45 | 0 | 5.0 | 5.0 | 0.00 | 0.02 | 0.00 | 86 | 1000.2 |
| 20260506230900 | 45 | 0 | 2.0 | 2.0 | 0.00 | 0.02 | 0.00 | 86 | 1000.1 |
| 20260506225400 | 45 | 0 | 1.0 | 3.0 | 0.00 | 0.02 | 0.00 | 87 | 1000.2 |
| 20260506223900 | 44 | 315 | 4.0 | 4.0 | 0.00 | 0.02 | 0.00 | 87 | 1000.1 |
| 20260506222400 | 44 | 337 | 4.0 | 4.0 | 0.00 | 0.02 | 0.00 | 86 | 999.7 |
| 20260506220900 | 44 | 0 | 1.0 | 2.0 | 0.00 | 0.02 | 0.00 | 86 | 999.6 |
| 20260506215400 | 44 | 337 | 2.0 | 3.0 | 0.00 | 0.02 | 0.00 | 86 | 999.8 |
| 20260506213900 | 44 | 337 | 4.0 | 5.0 | 0.00 | 0.02 | 0.00 | 85 | 999.7 |
| 20260506212400 | 45 | 337 | 2.0 | 2.0 | 0.00 | 0.02 | 0.00 | 85 | 999.7 |
| 20260506210900 | 45 | 0 | 0.0 | 5.0 | 0.00 | 0.02 | 0.00 | 85 | 999.7 |
| 20260506205400 | 45 | 337 | 0.0 | 1.0 | 0.00 | 0.02 | 0.00 | 84 | 999.4 |
| 20260506203900 | 45 | 22 | 1.0 | 3.0 | 0.00 | 0.02 | 0.00 | 84 | 999.2 |
| 20260506202400 | 46 | 0 | 4.0 | 4.0 | 0.00 | 0.02 | 0.00 | 84 | 999.2 |
| 20260506200900 | 46 | 0 | 3.0 | 3.0 | 0.00 | 0.02 | 0.00 | 84 | 999.0 |
| 20260506195400 | 46 | 337 | 3.0 | 3.0 | 0.00 | 0.02 | 0.00 | 84 | 998.8 |
| 20260506193900 | 46 | 337 | 1.0 | 3.0 | 0.00 | 0.02 | 0.00 | 83 | 998.7 |
| 20260506192401 | 47 | 22 | 0.0 | 0.0 | 0.00 | 0.02 | 0.00 | 82 | 998.7 |
| 20260506190901 | 48 | 0 | 2.0 | 2.0 | 0.00 | 0.02 | 0.00 | 81 | 998.6 |
| 20260506185401 | 48 | 0 | 1.0 | 2.0 | 0.00 | 0.04 | 0.00 | 79 | 998.6 |
| 20260506183901 | 49 | 22 | 0.0 | 0.0 | 0.00 | 0.04 | 0.00 | 77 | 998.4 |
| 20260506182401 | 51 | 0 | 2.0 | 2.0 | 0.00 | 0.04 | 0.00 | 75 | 998.2 |
| 20260506180901 | 52 | 45 | 0.0 | 2.0 | 0.00 | 0.04 | 0.00 | 73 | 998.0 |
| 20260506175401 | 54 | 45 | 0.0 | 1.0 | 0.00 | 0.04 | 0.00 | 73 | 998.1 |
| 20260506173901 | 54 | 45 | 0.0 | 0.0 | 0.00 | 0.04 | 0.00 | 72 | 997.9 |
| 20260506172401 | 55 | 67 | 0.0 | 0.0 | 0.00 | 0.04 | 0.00 | 72 | 997.9 |
| 20260506170901 | 55 | 45 | 1.0 | 1.0 | 0.00 | 0.04 | 0.00 | 71 | 997.8 |
| 20260506165401 | 56 | 67 | 0.0 | 0.0 | 0.00 | 0.04 | 0.00 | 70 | 997.9 |
| 20260506163901 | 57 | 45 | 0.0 | 0.0 | 0.00 | 0.04 | 0.00 | 69 | 997.8 |
| 20260506162401 | 58 | 45 | 4.0 | 4.0 | 0.00 | 0.04 | 0.00 | 71 | 997.9 |
| 20260506160901 | 58 | 45 | 3.0 | 3.0 | 0.00 | 0.04 | 0.00 | 70 | 998.0 |
| 20260506155401 | 58 | 45 | 1.0 | 2.0 | 0.00 | 0.06 | 0.00 | 70 | 998.2 |
| 20260506153901 | 58 | 45 | 1.0 | 1.0 | 0.00 | 0.06 | 0.00 | 70 | 998.2 |
| 20260506152401 | 59 | 45 | 1.0 | 2.0 | 0.00 | 0.06 | 0.00 | 70 | 998.3 |
| 20260506150901 | 59 | 0 | 1.0 | 5.0 | 0.00 | 0.06 | 0.00 | 70 | 998.4 |
| 20260506145401 | 58 | 337 | 2.0 | 2.0 | 0.00 | 0.08 | 0.00 | 70 | 998.6 |
| 20260506143901 | 59 | 0 | 6.0 | 6.0 | 0.00 | 0.08 | 0.00 | 69 | 998.6 |
| 20260506142401 | 61 | 337 | 3.0 | 3.0 | 0.00 | 0.08 | 0.00 | 69 | 998.3 |
| 20260506140901 | 60 | 337 | 5.0 | 5.0 | 0.00 | 0.08 | 0.00 | 69 | 998.4 |
| 20260506135401 | 63 | 22 | 0.0 | 4.0 | 0.00 | 0.08 | 0.00 | 65 | 998.1 |
| 20260506133901 | 63 | 0 | 4.0 | 4.0 | 0.00 | 0.08 | 0.00 | 66 | 997.8 |
| 20260506132401 | 65 | 45 | 2.0 | 3.0 | 0.00 | 0.08 | 0.00 | 63 | 997.7 |
| 20260506130901 | 69 | 22 | 6.0 | 6.0 | 0.00 | 0.08 | 0.00 | 61 | 997.7 |
| 20260506125401 | 64 | 45 | 0.0 | 3.0 | 0.00 | 0.08 | 0.00 | 67 | 997.7 |
| 20260506123901 | 64 | 45 | 7.0 | 7.0 | 0.00 | 0.08 | 0.00 | 68 | 997.5 |
| 20260506122401 | 62 | 45 | 1.0 | 6.0 | 0.00 | 0.08 | 0.00 | 71 | 997.5 |
| 20260506120901 | 61 | 67 | 4.0 | 5.0 | 0.00 | 0.08 | 0.00 | 71 | 997.5 |
| 20260506115401 | 61 | 22 | 0.0 | 0.0 | 0.00 | 0.08 | 0.00 | 71 | 997.6 |
| 20260506113901 | 61 | 45 | 4.0 | 4.0 | 0.00 | 0.08 | 0.00 | 70 | 997.6 |
| 20260506112402 | 62 | 45 | 3.0 | 3.0 | 0.00 | 0.08 | 0.00 | 68 | 997.5 |
| 20260506110901 | 64 | 157 | 0.0 | 0.0 | 0.00 | 0.08 | 0.00 | 64 | 997.5 |
| 20260506105401 | 70 | 67 | 5.0 | 5.0 | 0.00 | 0.08 | 0.00 | 58 | 997.6 |
| 20260506103901 | 69 | 45 | 0.0 | 5.0 | 0.00 | 0.08 | 0.00 | 61 | 997.7 |
| 20260506102401 | 65 | 67 | 2.0 | 5.0 | 0.00 | 0.08 | 0.00 | 67 | 997.8 |
| 20260506100901 | 62 | 135 | 0.0 | 1.0 | 0.00 | 0.08 | 0.00 | 72 | 998.1 |
| 20260506095402 | 60 | 45 | 1.0 | 2.0 | 0.00 | 0.08 | 0.00 | 75 | 998.0 |
| 20260506093902 | 57 | 45 | 2.0 | 4.0 | 0.00 | 0.08 | 0.00 | 76 | 997.8 |
| 20260506092402 | 57 | 45 | 1.0 | 5.0 | 0.00 | 0.08 | 0.00 | 79 | 997.9 |
| 20260506090902 | 55 | 45 | 6.0 | 6.0 | 0.00 | 0.08 | 0.00 | 80 | 997.8 |
| 20260506085402 | 54 | 67 | 2.0 | 3.0 | 0.00 | 0.08 | 0.00 | 77 | 998.1 |
| 20260506083902 | 57 | 67 | 3.0 | 5.0 | 0.00 | 0.08 | 0.00 | 73 | 998.1 |
| 20260506082402 | 58 | 67 | 0.0 | 6.0 | 0.00 | 0.08 | 0.00 | 72 | 998.2 |
| 20260506080902 | 57 | 67 | 2.0 | 3.0 | 0.00 | 0.08 | 0.00 | 71 | 998.2 |
| 20260506072402 | 62 | 90 | 0.0 | 5.0 | 0.00 | 0.08 | 0.00 | 64 | 998.5 |
| 20260506070902 | 61 | 135 | 5.0 | 5.0 | 0.00 | 0.08 | 0.00 | 68 | 998.9 |
| 20260506062402 | 59 | 45 | 3.0 | 6.0 | 0.00 | 0.08 | 0.00 | 70 | 998.8 |
| 20260506060902 | 56 | 22 | 3.0 | 6.0 | 0.00 | 0.08 | 0.00 | 76 | 999.1 |
| 20260506050902 | 47 | 22 | 3.0 | 3.0 | 0.00 | 0.08 | 0.00 | 86 | 999.9 |
| 20260506043902 | 45 | 45 | 0.0 | 6.0 | 0.02 | 0.08 | 0.00 | 88 | 1000.2 |
| 20260506042402 | 45 | 67 | 2.0 | 3.0 | 0.02 | 0.08 | 0.00 | 88 | 1000.2 |
| 20260506040902 | 45 | 67 | 2.0 | 3.0 | 0.00 | 0.06 | 0.00 | 88 | 1000.2 |
| 20260506035402 | 46 | 67 | 1.0 | 2.0 | 0.00 | 0.06 | 0.00 | 88 | 1000.4 |
| 20260506033902 | 46 | 45 | 2.0 | 2.0 | 0.00 | 0.06 | 0.00 | 88 | 1000.5 |
| 20260506032402 | 46 | 45 | 2.0 | 4.0 | 0.00 | 0.06 | 0.00 | 88 | 1000.6 |
| 20260506030902 | 46 | 45 | 0.0 | 0.0 | 0.00 | 0.06 | 0.00 | 88 | 1000.7 |
| 20260506025402 | 46 | 45 | 2.0 | 2.0 | 0.00 | 0.06 | 0.00 | 88 | 1000.4 |
| 20260506023902 | 45 | 67 | 0.0 | 2.0 | 0.00 | 0.06 | 0.00 | 88 | 1000.7 |
| 20260506022402 | 45 | 45 | 3.0 | 3.0 | 0.00 | 0.06 | 0.00 | 88 | 1000.7 |
| 20260506020902 | 46 | 67 | 0.0 | 3.0 | 0.00 | 0.06 | 0.00 | 88 | 1000.7 |
| 20260506015402 | 46 | 45 | 2.0 | 4.0 | 0.00 | 0.06 | 0.00 | 88 | 1001.0 |
| 20260506013902 | 47 | 22 | 4.0 | 6.0 | 0.00 | 0.06 | 0.00 | 88 | 1000.8 |
| 20260506012402 | 47 | 45 | 0.0 | 2.0 | 0.00 | 0.06 | 0.00 | 88 | 1001.6 |
| 20260506010902 | 47 | 45 | 2.0 | 2.0 | 0.00 | 0.06 | 0.00 | 88 | 1001.6 |
| 20260506005402 | 47 | 22 | 0.0 | 4.0 | 0.00 | 0.06 | 0.00 | 88 | 1001.5 |
| 20260506003903 | 47 | 45 | 1.0 | 2.0 | 0.00 | 0.06 | 0.00 | 88 | 1001.5 |
| 20260506002403 | 48 | 45 | 2.0 | 6.0 | 0.00 | 0.06 | 0.00 | 89 | 1001.2 |
| 20260506000903 | 48 | 45 | 6.0 | 6.0 | 0.00 | 0.06 | 0.00 | 89 | 1001.3 |
| 20260505235403 | 48 | 67 | 1.0 | 4.0 | 0.00 | 0.06 | 0.00 | 89 | 1001.4 |